• Join FlightAware (Why Join?)
  • Login
  • US Flag 
11:10PM EDT


 

Airport Tracker/Info


-or-


 

Live Flight TrackerFlight Track Log ✈ SWA303 ✈ 17-Apr-2013 ✈ KDEN - KIAD

Flight Track Log - Related Links

Times and Time Zones

All times are in EDT time to prevent confusion due to time zone crossing. See the SWA303 flight status page for this flight to view local times or setup timezone preferences in your user account.

Time Position Orientation Groundspeed Altitude Reporting Facility
EDT Latitude Longitude Course Direction KTS MPH feet Rate Location/Type
06:24PM 39.8833 -104.7000 49° Northeast 139 160 7,100  Level Denver TRACON
06:25PM 39.9167 -104.6500 49° Northeast 200 230 9,800 2,280 Climbing Denver TRACON
06:26PM 39.9539 -104.5739 57° Northeast 281 323 11,400 2,580 Climbing Denver Center
06:27PM 39.9547 -104.4547 89° East 327 376 14,800 3,120 Climbing Denver Center
06:28PM 39.9600 -104.3097 87° East 376 433 17,900 3,120 Climbing Denver Center
06:29PM 39.9706 -104.1672 84° East 393 452 21,200 2,460 Climbing Denver Center
06:30PM 39.9858 -104.0197 82° East 407 468 23,000 2,040 Climbing Denver Center
06:31PM 40.0025 -103.8858 81° East 404 465 25,500 2,340 Climbing Denver Center
06:32PM 40.0303 -103.7056 79° East 427 491 27,900 1,860 Climbing Denver Center
06:33PM 40.0578 -103.5422 78° East 448 516 29,400 1,560 Climbing Denver Center
06:34PM 40.0872 -103.3667 78° East 490 564 31,200 1,740 Climbing Denver Center
06:35PM 40.1156 -103.1906 78° East 491 565 33,000 2,280 Climbing Denver Center
06:36PM 40.1436 -103.0128 78° East 495 570 35,900 1,860 Climbing Denver Center
06:37PM 40.1703 -102.8406 78° East 482 555 36,900 480 Climbing Denver Center
06:38PM 40.1997 -102.6550 78° East 495 570 37,000 480 Climbing Denver Center
06:39PM 40.2500 -102.4900 68° East 510 587 38,000 1,140 Climbing Denver Center
06:40PM 40.3144 -102.2975 66° East 517 595 39,400 1,020 Climbing Denver Center
06:41PM 40.3697 -102.1322 66° East 517 595 40,200 780 Climbing Denver Center
06:42PM 40.4247 -101.9653 67° East 521 600 41,000 360 Climbing Denver Center
06:43PM 40.4881 -101.7731 67° East 515 593 41,000  Level Denver Center
06:44PM 40.5417 -101.6075 67° East 515 593 41,000  Level Denver Center
06:45PM 40.6031 -101.4158 67° East 511 588 41,000  Level Denver Center
06:46PM 40.6556 -101.2531 67° East 507 583 41,000  Level Denver Center
06:47PM 40.7072 -101.0900 67° East 505 581 41,000  Level Denver Center
06:48PM 40.7672 -100.8997 67° East 504 580 41,000  Level Denver Center
06:49PM 40.8178 -100.7436 67° East 506 582 41,000  Level Denver Center
06:50PM 40.8769 -100.5553 67° East 511 588 41,000  Level Denver Center
06:51PM 40.9367 -100.3625 68° East 510 587 41,000  Level Denver Center
06:52PM 40.9875 -100.1969 68° East 509 586 41,000  Level Denver Center
06:53PM 41.0392 -100.0303 68° East 511 588 41,000  Level Denver Center
06:54PM 41.0986 -99.8339 68° East 514 592 41,000  Level Denver Center
06:55PM 41.1503 -99.6636 68° East 518 596 41,000  Level Denver Center
06:56PM 41.2103 -99.4647 68° East 520 598 41,000  Level Denver Center
06:58PM 41.2594 -99.3003 68° East 521 600 41,000  Level Denver Center
06:59PM 41.3139 -99.1197 68° East 521 600 41,000  Level Denver Center
07:00PM 41.3669 -98.9369 69° East 520 598 41,000  Level Denver Center
07:00PM 41.3864 -98.8661 70° East 518 596 41,000  Level Minneapolis Center
07:01PM 41.4400 -98.6869 68° East 519 597 41,000  Level Minneapolis Center
07:02PM 41.4911 -98.5081 69° East 517 595 41,000  Level Minneapolis Center
07:03PM 41.5442 -98.3253 69° East 513 590 41,000  Level Minneapolis Center
07:04PM 41.5944 -98.1489 69° East 508 585 41,000  Level Minneapolis Center
07:05PM 41.6428 -97.9808 69° East 504 580 41,000  Level Minneapolis Center
07:06PM 41.7028 -97.7683 69° East 507 583 41,000  Level Minneapolis Center
07:07PM 41.7522 -97.5892 70° East 511 588 41,000  Level Minneapolis Center
07:08PM 41.8028 -97.4117 69° East 509 586 41,000  Level Minneapolis Center
07:09PM 41.8511 -97.2333 70° East 509 586 41,000  Level Minneapolis Center
07:10PM 41.9000 -97.0553 70° East 507 583 41,000  Level Minneapolis Center
07:11PM 41.9489 -96.8778 70° East 506 582 41,000  Level Minneapolis Center
07:12PM 41.9967 -96.6983 70° East 508 585 41,000  Level Minneapolis Center
07:13PM 42.0453 -96.5203 70° East 506 582 41,000  Level Minneapolis Center
07:14PM 42.0922 -96.3408 71° East 506 582 41,000  Level Minneapolis Center
07:15PM 42.1483 -96.1269 70° East 503 579 41,000 -300 Level Minneapolis Center
07:16PM 42.1947 -95.9489 71° East 501 577 40,400 -840 Descending Minneapolis Center
07:17PM 42.2378 -95.7831 71° East 474 545 39,400 -720 Descending Minneapolis Center
07:18PM 42.2800 -95.6167 71° East 470 541 39,000 -240 Descending Minneapolis Center
07:19PM 42.3233 -95.4511 70° East 468 539 39,000  Level Minneapolis Center
07:20PM 42.3667 -95.2828 71° East 472 543 39,000  Level Minneapolis Center
07:21PM 42.4092 -95.1131 71° East 475 547 39,000  Level Minneapolis Center
07:23PM 42.4500 -94.9419 72° East 477 549 39,000  Level Minneapolis Center
07:24PM 42.5025 -94.7369 71° East 480 552 39,000  Level Minneapolis Center
07:25PM 42.5403 -94.5817 72° East 480 552 39,000  Level Minneapolis Center
07:26PM 42.5817 -94.4106 72° East 481 554 39,000  Level Minneapolis Center
07:27PM 42.6339 -94.2408 67° East 493 567 39,000  Level Minneapolis Center
07:28PM 42.7342 -94.0517 54° Northeast 513 590 39,000  Level Minneapolis Center
07:29PM 42.8142 -93.8903 56° Northeast 515 593 39,000  Level Minneapolis Center
07:30PM 42.8953 -93.7289 56° Northeast 520 598 39,000  Level Minneapolis Center
07:31PM 42.9767 -93.5664 56° Northeast 522 601 39,000  Level Minneapolis Center
07:32PM 43.0569 -93.4042 56° Northeast 521 600 39,000  Level Minneapolis Center
07:33PM 43.1367 -93.2383 57° Northeast 522 601 39,000  Level Minneapolis Center
07:34PM 43.2272 -93.0361 58° Northeast 522 601 39,000  Level Minneapolis Center
07:35PM 43.3022 -92.8675 59° Northeast 521 600 39,000  Level Minneapolis Center
07:36PM 43.3772 -92.6994 58° Northeast 519 597 39,000  Level Minneapolis Center
07:37PM 43.4525 -92.5286 59° Northeast 523 602 39,000  Level Minneapolis Center
07:38PM 43.5286 -92.3564 59° Northeast 527 606 39,000  Level Minneapolis Center
07:39PM 43.6053 -92.1811 59° Northeast 530 610 39,000  Level Minneapolis Center
07:40PM 43.6792 -92.0092 59° Northeast 524 603 39,000  Level Minneapolis Center
07:41PM 43.7681 -91.8050 59° Northeast 519 597 39,000  Level Minneapolis Center
07:42PM 43.8283 -91.6308 64° Northeast 506 582 39,000  Level Minneapolis Center
07:43PM 43.8686 -91.4453 73° East 504 580 39,000  Level Minneapolis Center
07:44PM 43.9114 -91.2614 72° East 504 580 39,000  Level Minneapolis Center
07:45PM 43.9533 -91.0756 73° East 506 582 39,000  Level Minneapolis Center
07:46PM 43.9942 -90.8892 73° East 507 583 39,000  Level Minneapolis Center
07:47PM 44.0250 -90.6644 79° East 500 575 39,000  Level Minneapolis Center
07:48PM 44.0042 -90.5028 100° East 471 542 39,000  Level Minneapolis Center
07:49PM 43.9831 -90.3217 99° East 473 544 39,000  Level Minneapolis Center
07:50PM 43.9553 -90.1111 100° East 474 545 39,000  Level Minneapolis Center
07:51PM 43.9333 -89.9289 99° East 477 549 39,000  Level Minneapolis Center
07:52PM 43.9103 -89.7478 100° East 478 550 39,000  Level Minneapolis Center
07:53PM 43.8861 -89.5653 100° East 479 551 39,000  Level Minneapolis Center
07:54PM 43.8617 -89.3831 100° East 480 552 39,000  Level Minneapolis Center
07:55PM 43.8369 -89.1992 100° East 483 556 39,000  Level Minneapolis Center
07:56PM 43.8075 -88.9811 101° East 491 565 39,000  Level Minneapolis Center
07:58PM 43.7822 -88.7939 101° East 492 566 39,000  Level Minneapolis Center
07:59PM 43.7567 -88.6072 101° East 490 564 39,000  Level Minneapolis Center
08:00PM 43.7306 -88.4203 101° East 489 563 39,000  Level Minneapolis Center
08:01PM 43.7050 -88.2328 101° East 490 564 39,000  Level Minneapolis Center
08:02PM 43.6633 -88.0575 108° East 478 550 39,000  Level Minneapolis Center
08:03PM 43.6064 -87.8967 116° Southeast 465 535 39,000  Level Minneapolis Center
08:04PM 43.5494 -87.7364 116° Southeast 462 532 39,000  Level Minneapolis Center
08:05PM 43.4911 -87.5764 117° Southeast 465 535 39,000  Level Minneapolis Center
08:06PM 43.4244 -87.3869 116° Southeast 469 540 39,000  Level Minneapolis Center
08:07PM 43.3617 -87.2181 117° Southeast 472 543 39,000  Level Chicago Center
08:08PM 43.3039 -87.0547 116° Southeast 476 548 39,000  Level Chicago Center
08:09PM 43.2333 -86.8619 117° Southeast 473 544 39,000  Level Chicago Center
08:10PM 43.1739 -86.7003 117° Southeast 476 548 39,000  Level Chicago Center
08:11PM 43.1142 -86.5400 117° Southeast 476 548 39,000  Level Chicago Center
08:12PM 43.0536 -86.3800 117° Southeast 477 549 39,000  Level Chicago Center
08:13PM 42.9936 -86.2211 117° Southeast 477 549 39,000  Level Chicago Center
08:14PM 42.9342 -86.0650 117° Southeast 476 548 39,000  Level Chicago Center
08:15PM 42.8644 -85.8775 117° Southeast 473 544 39,000  Level Chicago Center
08:16PM 42.8053 -85.7208 117° Southeast 471 542 39,000  Level Chicago Center
08:17PM 42.7461 -85.5644 117° Southeast 468 539 39,000  Level Chicago Center
08:18PM 42.6856 -85.4086 118° Southeast 468 539 39,000  Level Chicago Center
08:19PM 42.6253 -85.2514 117° Southeast 469 540 39,000  Level Chicago Center
08:20PM 42.5647 -85.0939 118° Southeast 472 543 39,000  Level Chicago Center
08:21PM 42.5042 -84.9358 117° Southeast 472 543 39,000  Level Chicago Center
08:22PM 42.4414 -84.7772 118° Southeast 477 549 39,000  Level Chicago Center
08:23PM 42.3669 -84.6022 120° Southeast 478 550 39,000  Level Cleveland Center
08:24PM 42.3056 -84.4467 118° Southeast 478 550 39,000  Level Cleveland Center
08:25PM 42.2397 -84.2911 120° Southeast 478 550 39,000  Level Cleveland Center
08:26PM 42.1781 -84.1333 118° Southeast 478 550 39,000  Level Cleveland Center
08:27PM 42.1119 -83.9758 119° Southeast 478 550 39,000  Level Cleveland Center
08:28PM 42.0500 -83.8158 117° Southeast 478 550 39,000  Level Cleveland Center
08:29PM 41.9950 -83.6900 120° Southeast 478 550 39,000  Level Cleveland Center
08:30PM 41.9344 -83.5308 117° Southeast 478 550 39,000  Level Cleveland Center
08:31PM 41.8617 -83.3603 120° Southeast 478 550 39,000  Level Cleveland Center
08:32PM 41.7944 -83.2014 120° Southeast 483 556 39,000  Level Cleveland Center
08:33PM 41.7314 -83.0428 118° Southeast 483 556 39,000  Level Cleveland Center
08:34PM 41.6636 -82.8847 120° Southeast 489 563 39,000  Level Cleveland Center
08:35PM 41.6039 -82.7408 119° Southeast 489 563 39,000  Level Cleveland Center
08:36PM 41.5086 -82.5933 131° Southeast 489 563 39,000  Level Cleveland Center
08:37PM 41.4172 -82.4633 133° Southeast 484 557 39,000  Level Cleveland Center
08:38PM 41.3256 -82.3250 131° Southeast 484 557 39,000  Level Cleveland Center
08:40PM 41.2048 -82.1601 134° Southeast  Level FlightAware Approximate
08:40PM 41.1581 -82.0778 134° Southeast 479 551 39,000  Level Cleveland Center
08:41PM 41.0556 -81.9378 134° Southeast 479 551 39,000  Level Cleveland Center
08:42PM 40.9672 -81.8094 132° Southeast 474 545 39,000  Level Cleveland Center
08:43PM 40.8769 -81.6842 134° Southeast 474 545 39,000  Level Cleveland Center
08:44PM 40.7906 -81.5594 132° Southeast 474 545 39,000  Level Cleveland Center
08:45PM 40.6997 -81.4322 133° Southeast 474 545 39,000  Level Cleveland Center
08:46PM 40.6089 -81.3050 133° Southeast 474 545 39,000  Level Cleveland Center
08:47PM 40.5347 -81.1814 128° Southeast 474 545 39,000  Level Cleveland Center
08:48PM 40.4519 -81.0497 130° Southeast 474 545 39,000 -300 Level Cleveland Center
08:49PM 40.3689 -80.9100 128° Southeast 474 545 38,400 -840 Descending Cleveland Center
08:50PM 40.2881 -80.7792 129° Southeast 479 551 37,400 -960 Descending Cleveland Center
08:51PM 40.2047 -80.6428 129° Southeast 479 551 36,500 -900 Descending Cleveland Center
08:52PM 40.1214 -80.5097 129° Southeast 479 551 35,600 -780 Descending Cleveland Center
08:53PM 40.0378 -80.3769 129° Southeast 479 551 35,000 -900 Descending Cleveland Center
08:54PM 39.9458 -80.2311 129° Southeast 479 551 33,800 -1,140 Descending Cleveland Center
08:55PM 39.8639 -80.1017 129° Southeast 474 545 32,800 -1,020 Descending Cleveland Center
08:57PM 39.6950 -79.8392 130° Southeast 467 537 30,900 -1,020 Descending Washington Center
08:58PM 39.6142 -79.7078 129° Southeast 467 537 29,900 -1,500 Descending Washington Center
08:59PM 39.5350 -79.5847 130° Southeast 460 529 27,900 -1,440 Descending Washington Center
09:00PM 39.4856 -79.4422 114° Southeast 440 506 27,000 -480 Descending Washington Center
09:01PM 39.4569 -79.2847 103° East 432 497 27,000 -780 Level Washington Center
09:02PM 39.4300 -79.1464 104° East 438 504 25,500 -2,100 Descending Washington Center
09:03PM 39.4031 -78.9947 103° East 438 504 22,900 -2,520 Descending Washington Center
09:04PM 39.3758 -78.8511 104° East 427 491 20,500 -2,340 Descending Washington Center
09:05PM 39.3503 -78.7156 104° East 405 466 18,300 -2,160 Descending Washington Center
09:06PM 39.3283 -78.5886 103° East 380 437 16,200 -2,100 Descending Washington Center
09:07PM 39.3067 -78.4589 102° East 369 425 14,100 -2,160 Descending Washington Center
09:08PM 39.2739 -78.3397 110° East 358 412 11,900 -1,560 Descending Washington Center
09:09PM 39.2219 -78.2414 124° Southeast 344 396 11,000 -1,080 Descending Washington Center
09:10PM 39.1719 -78.1483 125° Southeast 328 377 9,800 -1,440 Descending Washington Center
09:11PM 39.1256 -78.0639 125° Southeast 315 362 8,200 -1,440 Descending Washington Center
09:12PM 39.0814 -77.9794 124° Southeast 290 334 7,000 -600 Descending Washington Center
09:13PM 39.0392 -77.9006 125° Southeast 279 321 7,100  Climbing Washington Center
09:14PM 38.9992 -77.8219 123° Southeast 267 307 7,000 -540 Descending Washington Center
09:15PM 38.9631 -77.7300 117° Southeast 267 307 6,100 -480 Descending Washington Center
09:16PM 38.9522 -77.6417 99° East 262 302 6,100 -600 Level Washington Center
09:17PM 38.9167 -77.6000 138° Southeast 260 299 5,200 -1,320 Descending Potomac TRACON
09:18PM 38.8500 -77.5667 159° South 246 283 4,100 -840 Descending Potomac TRACON
09:19PM 38.8000 -77.5500 165° South 214 246 3,600 -720 Descending Potomac TRACON
09:20PM 38.8000 -77.5000 90° East 193 222 2,700 -780 Descending Potomac TRACON
09:21PM 38.8333 -77.4667 38° Northeast 182 209 2,100 -660 Descending Potomac TRACON
09:22PM 38.8833 -77.4667 360° North 159 183 1,400 -720 Descending Potomac TRACON
09:23PM 38.9167 -77.4667 360° North 136 157 700 -720 Descending Potomac TRACON
09:25PM 38.9333 -77.4500 165° South  Level FlightAware Approximate
09:32PM 38.9474 -77.4599 165° South  Level Estimated